Helicity
41 15 1 -32 -5 7 12 28 24 3 11 18 29 48 32 50 43 34 21 32 30 6 -3 -16 -40 -24 -17 -6 -6 -2 2 3 2 4 3 4 5 8 6 -3 -8 -4 13
43 24 -0 -7 -2 11 4 29 21 26 1 10 40 57 47 55 35 17 30 36 49 38 -7 4 -48 -36 -22 -18 -9 -7 1 3 2 2 1 3 7 12 13 3 -5 -2 11
52 32 18 -6 11 3 9 13 21 -10 12 26 29 34 40 64 46 34 51 39 11 15 7 -13 -22 -43 -36 -24 -11 -9 -6 -4 -1 -0 -4 1 8 13 12 8 3 8 10
51 32 9 1 6 -2 13 18 2 -7 5 4 17 40 38 52 65 48 50 28 31 -7 -0 4 -1 -20 -30 -23 -15 -8 -5 -8 -3 -2 -1 -2 7 12 17 15 14 15 13
52 41 24 12 17 11 17 13 -8 -13 2 3 -3 -10 17 20 26 17 25 20 36 16 -2 11 24 -1 -18 -16 -15 -18 -6 -8 -5 2 -3 -3 7 9 15 18 19 13 7
44 36 30 33 5 29 22 10 14 7 4 3 6 7 11 -9 13 38 38 25 11 18 -5 -18 -21 -10 -6 -16 -11 -13 -9 -5 2 2 5 2 3 8 8 12 11 9 3
45 33 60 16 21 10 17 14 15 19 -7 -5 24 21 3 16 -10 -13 -10 -1 27 19 -0 -6 -0 -20 -42 -14 -26 -15 -4 -4 -5 -0 2 6 8 11 2 -0 -1 -2 -3
55 64 37 23 13 2 -8 -22 -9 14 -0 5 1 12 8 -12 -1 -3 -24 -19 -8 -9 -11 -16 -3 6 -29 -53 -48 -31 -25 -0 4 -4 -2 1 5 13 12 -4 -14 -15 -14
53 45 36 18 5 8 -16 -27 -30 -2 -7 -13 -8 2 8 -4 -2 6 -13 -17 -26 -14 2 -10 16 22 32 -6 -1 -17 -30 -33 -8 1 6 8 15 21 16 10 -1 -14 -22
38 34 16 7 -0 10 2 -18 -24 -22 -21 -11 -24 -14 -19 -8 25 -0 -24 9 -1 -29 -4 29 17 34 46 46 41 54 30 -0 -8 1 19 24 26 29 23 17 9 2 -6
20 27 13 2 2 7 -14 -21 -19 -23 -20 -21 -16 -27 -8 -23 19 36 -21 -10 11 -22 -11 33 45 54 68 72 53 64 74 34 13 9 22 34 36 41 34 25 24 24 19
27 34 24 22 20 -1 -22 -28 -28 -27 -18 -15 -14 -0 1 5 15 24 14 3 -17 27 20 19 38 53 45 75 102 90 92 84 57 25 -0 -4 12 19 23 13 8 -6 -21
30 33 30 34 25 7 -21 -28 -30 -23 -25 -32 6 9 13 23 26 7 9 14 -26 16 24 10 35 56 87 108 78 88 86 89 84 72 66 39 22 11 24 36 26 14 4
48 33 38 34 21 4 -8 -17 -22 -27 -38 -43 -23 -11 -17 3 21 19 6 14 -8 -25 -28 -6 30 45 22 60 96 102 51 49 98 102 81 77 77 71 62 54 56 57 45
18 20 24 17 6 -2 -6 -14 -20 -28 -40 -47 -32 -34 -25 -23 1 15 31 34 25 -23 -46 -5 19 13 22 40 69 96 58 77 44 66 90 83 69 77 94 100 101 96 94
-24 -21 3 4 2 -4 -11 -11 -19 -24 -33 -40 -42 -40 -41 -44 -34 -16 18 28 24 4 -24 -3 -13 -6 56 50 40 27 26 68 42 20 10 71 100 93 93 97 99 101 103
23 -48 -3 -21 -15 -9 -5 -8 -13 -20 -20 -34 -40 -37 -37 -40 -40 -31 -39 -19 -1 17 -6 -44 -20 17 34 35 35 38 57 79 72 45 16 16 24 36 35 61 72 73 79
67 54 47 4 -47 -38 -27 -15 -17 -14 -13 -23 -30 -42 -38 -63 -41 -30 -10 -25 -29 17 16 -44 -92 -25 -16 2 7 30 67 81 76 16 27 42 62 53 1 5 49 109 137
71 77 75 79 76 70 59 38 -3 -24 -23 -19 -24 -26 -35 -59 -58 -65 -29 -32 -34 -37 26 9 -50 9 -8 -4 -1 14 -19 1 37 3 9 87 80 74 74 66 48 38 124
64 68 80 90 103 96 112 108 77 57 54 49 48 49 46 47 46 50 61 64 76 81 87 70 27 33 33 25 26 17 -86 -38 -51 34 21 37 73 72 49 65 75 81 91
75 69 72 78 94 102 96 97 95 95 98 100 99 89 76 67 52 50 63 68 72 80 90 92 73 70 65 63 62 34 29 30 -46 60 28 53 76 95 67 61 61 60 92
99 96 96 89 95 94 107 101 82 85 85 86 98 107 113 114 106 104 83 58 53 71 82 89 98 100 67 85 82 84 60 23 -13 11 38 29 51 81 79 93 76 66 63
99 92 89 89 84 77 104 94 87 70 77 81 73 68 73 78 87 83 101 113 112 98 64 81 94 103 84 85 97 91 99 80 52 49 33 6 57 71 82 87 56 70 88
86 73 71 76 78 112 108 97 83 73 77 86 91 89 89 100 133 116 110 116 124 126 121 109 88 82 77 78 91 89 74 78 96 77 89 52 52 72 68 73 47 45 55
80 76 71 90 137 133 149 131 87 86 90 101 106 116 116 132 175 169 135 126 120 117 127 129 121 93 84 79 75 93 73 62 43 48 85 96 53 61 76 58 71 68 96
95 101 116 115 126 119 142 122 70 45 57 71 94 108 115 124 131 133 116 97 87 98 107 103 102 97 94 100 97 133 127 111 114 60 31 99 91 56 -24 17 60 79 113
Wind_Speed
20 18 17 13 46 40 39 39 38 28 24 23 24 24 28 27 29 31 32 36 39 51 60 63 63 57 57 52 54 55 53 51 49 47 47 47 47 45 43 35 32 32 33
21 20 21 15 47 40 38 40 38 31 23 24 27 27 26 24 28 31 33 39 51 56 59 61 57 57 57 56 56 56 55 52 50 47 47 48 47 46 44 42 38 37 37
20 19 24 27 45 43 39 37 39 37 26 24 23 23 28 27 30 31 33 39 48 58 57 60 55 59 58 57 56 56 56 54 52 48 47 49 49 46 44 42 42 41 39
18 19 24 29 42 37 38 37 35 32 35 13 23 24 28 29 27 28 32 37 45 51 56 59 61 63 62 60 57 58 59 55 55 53 48 50 51 48 46 45 45 44 43
12 16 19 14 28 34 38 35 29 31 35 32 32 25 29 31 30 28 34 41 42 47 51 56 57 61 63 63 62 58 56 59 56 53 54 50 49 49 48 47 48 48 47
9 13 14 15 46 37 39 29 32 32 28 33 31 20 32 22 23 29 27 34 40 44 49 51 53 57 60 65 62 60 59 57 57 56 55 53 52 50 51 52 53 53 52
11 9 20 11 32 46 46 34 33 35 25 30 26 27 29 30 27 40 24 27 38 40 41 48 49 50 57 62 64 60 58 61 60 59 57 56 53 52 55 56 57 57 56
15 13 24 38 41 51 48 40 36 33 29 28 26 27 26 22 29 37 42 43 39 41 42 42 46 46 46 54 62 64 62 59 55 53 55 56 54 50 52 58 61 62 62
13 6 46 51 51 49 48 38 30 17 21 24 25 28 24 23 27 34 20 39 49 43 44 43 43 46 42 44 48 57 62 61 58 53 51 54 52 51 55 57 59 63 66
16 27 49 53 55 53 52 48 44 39 35 34 26 31 29 31 26 23 14 28 46 48 42 38 42 42 43 41 41 40 50 59 58 57 50 50 51 53 56 61 63 63 65
41 47 48 51 55 55 53 50 49 44 35 34 32 32 31 30 26 24 20 16 37 45 42 41 36 34 34 38 39 38 42 49 57 59 56 54 53 51 54 59 63 62 61
37 44 49 51 54 54 51 47 49 49 46 43 38 31 27 26 25 26 28 33 39 39 34 34 31 31 30 24 32 40 36 38 45 53 61 59 55 55 53 59 62 67 72
36 41 45 48 50 50 49 48 48 51 48 40 33 32 28 25 24 26 29 29 26 23 35 36 28 24 18 16 20 28 38 37 38 41 47 59 60 58 55 53 57 63 66
34 36 39 42 44 46 47 48 47 48 48 44 36 28 25 26 23 23 24 24 28 24 30 37 29 7 2 8 13 11 13 42 39 41 46 51 59 58 59 61 59 56 58
34 36 37 38 40 42 42 42 42 44 44 42 39 36 29 28 24 21 19 19 18 19 32 33 38 14 34 7 7 10 28 21 35 50 46 51 62 65 60 57 58 56 49
31 33 34 37 38 38 39 38 38 37 37 38 36 36 39 35 32 25 24 22 19 18 22 11 23 45 31 24 21 11 32 30 51 75 64 55 54 62 65 60 55 53 51
32 32 24 32 36 37 36 35 36 35 34 38 38 37 37 30 34 27 27 22 21 16 25 34 3 28 23 6 4 7 5 15 37 60 78 80 80 72 63 54 45 50 48
33 33 29 16 33 33 28 28 29 24 27 30 34 36 41 40 35 25 10 21 27 15 10 32 13 19 16 21 9 5 8 10 6 62 68 17 44 58 82 73 55 36 24
34 34 33 31 32 36 36 29 6 10 14 16 22 25 37 37 45 39 14 19 24 28 10 10 36 21 27 26 28 28 9 7 6 53 67 21 22 70 67 66 76 82 61
37 37 37 37 37 34 35 37 37 37 36 32 33 36 38 41 44 55 45 34 41 42 38 28 18 29 45 46 42 40 23 12 62 64 68 69 66 49 69 65 62 66 67
41 41 40 40 39 37 41 41 40 40 40 40 40 40 41 43 45 46 51 55 50 51 50 54 65 59 62 60 60 51 47 44 70 60 77 73 69 61 74 66 60 63 68
43 43 43 43 40 38 42 43 42 43 43 44 47 50 52 54 56 57 58 59 55 55 57 56 60 61 69 64 63 63 70 73 70 52 54 64 55 58 58 57 52 63 68
45 46 45 44 44 45 47 45 44 44 46 47 49 50 53 53 57 60 61 61 62 61 58 59 65 64 71 68 66 69 70 72 74 67 67 84 61 74 69 66 68 68 69
49 49 48 47 46 47 48 47 45 45 46 48 50 53 53 54 53 55 56 57 59 60 61 61 62 67 66 68 64 67 70 69 70 68 59 76 65 75 74 76 79 83 84
50 49 48 44 40 43 46 47 46 48 49 51 52 51 51 45 50 56 57 59 62 62 62 64 65 65 68 70 67 66 68 71 76 76 60 67 68 78 76 78 72 72 74
49 47 45 40 33 40 48 51 51 50 52 53 54 53 48 51 56 59 61 62 66 67 70 75 75 75 74 74 72 60 62 65 66 75 62 62 74 71 82 69 68 62 62
Wind_Direction
141 129 112 109 254 284 281 254 272 185 158 155 153 139 153 145 146 148 153 159 165 176 184 190 182 171 172 158 163 172 169 165 163 151 154 162 176 165 184 228 240 242 231
145 124 125 112 254 274 275 266 246 219 163 151 159 159 149 125 138 147 156 164 177 179 186 180 167 169 172 173 174 177 178 172 168 159 160 175 178 176 180 207 230 233 227
132 100 127 157 255 260 264 281 271 335 25 52 108 128 154 135 147 151 147 158 174 183 182 177 169 178 178 176 178 179 182 180 177 168 170 184 186 183 188 206 219 230 230
125 123 140 163 254 276 272 283 311 357 339 69 139 133 144 129 125 128 142 157 169 175 179 185 189 190 186 183 180 185 192 185 185 185 173 186 193 193 194 199 216 229 233
98 123 131 84 309 274 264 286 345 349 326 320 349 358 155 142 126 115 151 163 159 169 174 183 185 189 189 187 187 185 186 193 190 184 190 187 186 193 199 204 213 229 237
63 112 48 44 232 265 262 310 318 325 29 328 2 18 274 277 79 123 115 131 155 167 176 180 184 189 186 190 188 189 192 191 192 192 192 192 194 194 201 210 221 231 239
357 98 340 22 281 245 229 291 307 287 43 13 28 27 321 304 307 180 239 111 154 160 164 177 178 181 188 190 194 193 193 197 199 198 197 197 196 198 206 213 223 230 239
328 326 313 268 256 228 203 183 199 291 340 29 22 49 47 53 277 256 195 201 167 171 174 169 176 177 179 189 198 200 200 198 196 196 199 200 201 199 204 214 224 232 242
118 33 251 238 228 237 194 169 150 52 33 88 340 74 65 56 123 289 278 190 216 182 184 178 175 180 177 182 189 199 202 201 198 198 199 202 202 203 208 213 217 227 237
71 139 241 233 222 231 218 199 198 185 170 180 109 149 133 143 105 116 79 307 232 200 179 170 178 179 182 182 187 188 195 201 200 202 202 204 205 207 212 216 221 224 229
197 214 214 223 222 221 210 204 207 195 168 177 154 149 172 143 102 107 104 83 276 192 183 184 177 174 176 183 185 189 194 198 205 207 208 209 210 211 214 218 222 225 226
191 205 214 214 215 207 199 193 203 208 204 207 194 157 132 123 125 119 143 150 176 281 172 179 172 175 178 178 187 194 192 194 197 204 211 213 214 216 218 222 225 230 234
201 202 207 199 203 198 196 195 197 211 201 188 172 172 157 145 113 123 126 115 150 317 302 203 176 170 170 172 185 192 199 199 200 202 206 213 217 218 220 223 225 229 231
193 191 187 185 188 193 193 192 196 198 202 196 184 160 159 162 140 126 113 97 177 122 183 217 331 15 337 161 174 205 261 208 207 209 210 212 216 218 222 227 228 228 229
198 189 187 185 184 181 179 181 186 192 193 193 193 197 182 178 157 154 137 130 91 118 198 258 310 59 195 154 185 336 308 297 225 216 213 214 219 223 222 225 227 228 228
181 185 168 177 178 172 173 174 179 183 182 185 189 194 201 196 191 174 173 168 160 160 183 102 185 260 335 330 346 168 199 317 302 256 220 216 219 224 228 226 225 226 227
295 188 122 162 176 179 173 175 182 180 178 190 194 196 200 192 202 187 187 172 175 169 200 219 65 346 355 134 157 173 313 337 320 282 248 254 246 235 229 224 223 225 226
331 321 332 54 176 180 169 172 176 165 176 184 195 199 209 209 205 193 175 191 201 189 197 222 217 341 346 345 348 329 314 320 304 275 266 258 295 286 258 237 226 225 251
323 321 324 330 325 311 311 327 26 168 171 175 185 192 208 209 219 214 203 207 209 211 221 244 229 329 328 333 331 327 275 270 282 233 241 235 253 283 283 283 274 263 290
327 322 320 319 317 325 323 322 320 317 316 317 315 312 311 309 309 298 309 317 313 310 311 313 296 304 316 319 322 323 239 306 252 291 286 288 291 300 279 284 288 288 288
329 325 323 322 323 325 318 318 319 320 318 315 314 313 312 311 310 310 306 304 309 307 307 304 297 304 302 305 307 314 314 316 266 303 285 288 290 293 273 284 291 292 291
332 330 325 322 322 325 320 320 320 317 315 313 309 306 306 304 303 304 303 302 305 306 305 305 302 302 298 302 305 304 298 297 301 309 307 300 303 296 294 293 295 291 291
337 332 331 327 324 322 320 322 322 320 316 313 312 310 308 308 307 305 303 302 302 301 302 303 300 300 297 301 302 300 299 297 295 300 301 283 298 286 289 290 289 291 292
333 330 327 325 324 323 322 323 325 323 321 318 316 312 310 310 312 311 309 307 305 304 303 303 301 299 300 299 300 300 299 299 298 300 303 294 298 291 290 288 287 286 287
330 329 331 333 335 333 332 330 329 326 323 321 320 320 318 317 316 314 312 308 306 305 306 305 304 303 301 300 300 300 298 298 296 294 301 298 298 295 294 292 294 294 293
330 334 340 344 352 340 334 331 329 327 324 322 320 320 322 319 315 313 311 309 306 305 304 302 300 300 299 298 297 299 297 296 296 297 301 298 296 299 294 297 296 297 298